Flag for Germany Weather past 2 weeks in Kamp-Lintfort, North Rhine-Westphalia, Germany

Now
65 °F

Overcast.


Feels Like: 65 °F
Forecast: 50 / 62 °F
Wind: 8 mph from Southwest

Location: Duesseldorf

Current Time: Aug 22, 2014 at 12:50:47 PM

Latest Report: Aug 22, 2014 at 12:00 PM


Visibility: 31 mi

Pressure: 29.88 "Hg

Humidity: 54%

Dew point: 48 °F

Location of Kamp-LintfortLocation

Historic Weather in Kamp-Lintfort — Graph

°F

Kamp-Lintfort temperature yesterday

Maximum temperature yesterday: 64 °F (at 2:00 PM)
Minimum temperature yesterday: 45 °F (at 6:00 AM)
Average temperature yesterday: 55 °F

Past Weeks' High & Low Weather Summary

 TemperatureHumidityPressure
High77 °F (Aug 8, 1:00 PM)96% (Aug 21, 3:00 AM)30.10 "Hg (Aug 21, 3:00 AM)
Low45 °F (Aug 21, 6:00 AM)44% (Aug 20, 4:00 PM)29.57 "Hg (Aug 10, 7:00 PM)
Average61 °F75%29.87 "Hg
* Reported Aug 7 12:00 Noon — Aug 22 11:00 AM, Kamp-Lintfort, Weather by CustomWeather, © 2014

Note: Actual official high and low records may vary slightly from our data, if they occured in-between our weather recording intervals... More about our weather records

Advertising

Kamp-Lintfort weather history for previous 24 hours

 ConditionsComfort  
Time TempWeatherWind HumidityBarometerVisibility
11:00 AM
Aug 22
61 °FOvercast.7 mph60%29.89 "Hg31 mi
10:00 AM59 °FOvercast.5 mph67%29.90 "Hg31 mi
9:00 AM56 °FOvercast.5 mph76%29.90 "Hg31 mi
8:00 AM54 °FOvercast.6 mph81%29.90 "Hg25 mi
7:00 AM53 °FPartly sunny.6 mph85%29.91 "Hg25 mi
6:00 AM52 °FPassing clouds.3 mph83%29.92 "Hg28 mi
4:00 AM53 °FOvercast.3 mph82%29.94 "Hg28 mi
3:00 AM52 °FPassing clouds.3 mph83%29.96 "Hg28 mi
2:00 AM54 °FOvercast.5 mph81%29.96 "Hg28 mi
1:00 AM56 °FPassing clouds.3 mph75%29.96 "Hg28 mi
12:00 AM58 °FPassing clouds.5 mph70%29.97 "Hg28 mi
11:00 PM
Aug 21
58 °FOvercast.3 mph69%29.98 "Hg28 mi
10:00 PM58 °FOvercast.3 mph70%29.97 "Hg25 mi
9:00 PM59 °FOvercast.6 mph74%29.96 "Hg12 mi
8:00 PM61 °FOvercast.3 mph60%29.96 "Hg28 mi
7:00 PM63 °FPartly sunny.3 mph51%29.97 "Hg28 mi
6:00 PM62 °FPartly sunny.3 mph54%29.98 "Hg25 mi
4:00 PM63 °FMild.5 mph52%30.01 "HgN/A
3:00 PM62 °FOvercast.6 mph55%30.02 "Hg25 mi
2:00 PM64 °FScattered clouds.5 mph51%30.02 "Hg22 mi
1:00 PM63 °FScattered clouds.6 mph59%30.03 "Hg22 mi
12:00 PM60 °FPassing clouds.6 mph65%30.03 "Hg16 mi
Weather by CustomWeather, © 2014

See weather overviewHow to use our weather pages